sat.trackr.live / text

‹ back to catalog

STARLINK-33965

NORAD 64755 · 2025-147A

PAYLOAD ACTIVE UNKNOWN

§ Identity

Operator
Country
US
Launch date
2025-07-08
Launch site
AFETR
Launch vehicle
Mass (kg)
RCS (m²)

Purposes: comms

External: N2YO · Heavens-Above · Gunter

§ Orbital elements

Epoch: 2026-09-20T14:13:27.348096Z

Period
93.85 min
Inclination
53.1595°
Eccentricity
0.0001741
Mean motion
15.34403719 rev/d
Perigee alt
461.5 km
Apogee alt
463.9 km
Semi-major
6,840.8 km
B*
6.0869e-4
RAAN
53.0993°
Arg perigee
33.5707°
Mean anomaly
326.5405°
Rev number
6,869

§ Raw data

STARLINK-339651 64755U 25147A   26263.59267764  .00020247  00000+0  60869-3 0  99972 64755  53.1595  53.0993 0001741  33.5707 326.5405 15.34403719 68695

JSON: /api/v1/satellites/64755 · /tle

For live sub-satellite position, see the globe view (requires WebGL).

§ Visibility from observer

Set your observer location to see the next 7 days of passes ≥ 10°. The values pass through the URL so the page stays shareable.

No JS? Fill the form by hand. The geolocation button needs JavaScript.